User: anonymous   Login
Location: Gleizolles
(44.4833°N, 6.7667°E)
Time: 11:43:30
(UTC+00:00)
Language:

SR - Orbit

View from above orbital plane
View from above orbital plane
View from above satellite
View from above satellite

Ground track
Ground track

The orbit data is extracted from the following two-line orbital elements,

1    46U 60007B   24172.98358560  .00001477  00000-0  30611-3 0  9996
2    46  66.6904  44.6264 0195711 119.3318 242.7501 14.52007314351433
Epoch (UTC): 20 June 2024 23:36:21
Eccentricity: 0.0195711
inclination: 66.6904°
perigee height: 580 km
apogee height: 858 km
right ascension of ascending node: 44.6264°
argument of perigee: 119.3318°
revolutions per day: 14.52007314
mean anomaly at epoch: 242.7501°
orbit number at epoch: 35143

The dashed part of the orbit path shows where the satellite is in the earth's shadow,  

DLR